Date,TemperatureHighF,TemperatureAvgF,TemperatureLowF,DewpointHighF,DewpointAvgF,DewpointLowF,HumidityHigh,HumidityAvg,HumidityLow,PressureMaxIn,PressureMinIn,WindSpeedMaxMPH,WindSpeedAvgMPH,GustSpeedMaxMPH,PrecipitationSumIn
2013-2-1,17.4,3.3,-18.2,8.1,-6.7,-31.7,74,62,49,30.12,29.89,19,6,19,0.00
2013-2-2,31.3,10.3,-2.4,27.9,2.1,-12.2,89,69,60,30.11,29.85,36,11,36,0.01
2013-2-3,16.2,11.9,0.0,8.3,4.7,-7.4,76,72,67,30.07,29.92,14,4,14,0.00
2013-2-4,38.5,23.0,-2.6,30.9,16.8,-10.1,84,77,69,29.97,29.58,24,8,24,0.02
2013-2-5,33.3,19.7,10.2,26.7,12.1,2.8,81,72,60,29.96,29.65,21,5,21,0.00
2013-2-6,33.6,20.9,12.4,22.8,15.5,8.0,88,79,62,30.11,29.71,17,7,17,0.00
2013-2-7,21.2,13.8,6.1,18.8,8.4,0.0,91,79,71,30.19,30.11,17,7,17,0.00
2013-2-8,26.2,23.6,19.6,23.6,20.3,16.3,92,87,78,30.11,29.91,12,6,12,0.00
2013-2-9,32.4,20.5,8.4,23.0,14.5,3.2,92,78,60,29.91,29.79,11,4,11,0.00
2013-2-10,24.4,20.0,14.2,21.4,16.6,9.8,92,86,80,29.94,29.74,18,6,18,0.00
2013-2-11,28.2,19.0,15.3,16.1,11.8,7.3,83,73,56,29.99,29.75,19,8,19,0.00
2013-2-12,34.9,26.1,16.7,25.2,18.2,9.3,81,72,61,29.81,29.73,22,10,22,0.00
2013-2-13,34.2,29.3,26.1,31.1,25.8,19.5,95,87,74,29.75,29.58,12,2,14,0.09
2013-2-14,29.1,19.6,12.2,28.1,12.6,4.6,96,74,49,30.20,29.73,19,3,19,0.00
2013-2-15,22.5,15.2,9.9,13.5,8.1,3.6,84,73,62,30.32,30.02,16,6,16,0.00
2013-2-16,40.1,27.2,18.0,29.7,22.1,12.7,97,82,65,30.02,29.71,13,4,13,0.02
2013-2-17,42.3,32.2,16.7,34.9,28.8,14.3,100,87,72,29.71,29.45,25,12,25,0.05
2013-2-18,16.9,7.1,-8.5,14.5,-0.1,-19.5,90,72,57,30.27,29.62,28,16,28,0.00
2013-2-19,8.2,-8.2,-17.5,-15.1,-24.0,-28.9,58,45,31,30.42,30.27,16,6,16,0.00
2013-2-20,9.9,-0.3,-12.3,2.7,-11.2,-26.1,73,59,45,30.33,30.09,25,12,25,0.00
2013-2-21,23.5,15.9,9.5,18.0,10.4,2.7,85,79,70,30.15,30.05,17,8,17,0.00
2013-2-22,31.5,17.3,9.7,19.7,10.4,3.3,88,74,57,30.06,29.78,12,4,12,0.00
2013-2-23,39.7,23.6,7.5,28.0,17.7,3.2,92,78,57,29.78,29.68,13,4,13,0.00
2013-2-24,32.0,25.0,21.6,30.6,21.7,17.2,98,87,83,29.87,29.77,20,7,20,0.00
2013-2-25,87.6,74.1,62.6,69.5,65.1,59.3,100,75,51,29.97,29.86,22,10,22,0.04
2013-2-26,66.4,28.8,19.8,66.4,22.6,15.5,100,78,54,30.04,29.79,16,6,16,0.00
2013-2-27,27.9,21.4,17.1,21.0,16.9,11.4,91,83,74,30.25,30.03,16,7,16,0.00
2013-2-28,30.4,21.5,15.8,21.7,15.8,10.2,89,78,67,30.25,30.19,12,4,12,0.00